DW5338 Weather Reports


Display with metric or nautical units.
time (UTC)temp
F
wind
direction
speed
MPH
gust
MPH
rain 1hr
in
rain 24hr
in
rain mn
in
humidity
%
barometer
mb
20200703201357 71 67 1.0 7.0 0.00 0.00 0.00 36 1027.7
20200703200857 71 67 2.0 6.0 0.00 0.00 0.00 36 1027.7
20200703200356 71 90 0.0 7.0 0.00 0.00 0.00 36 1027.7
20200703195856 71 112 3.0 6.0 0.00 0.00 0.00 37 1027.7
20200703195356 71 67 3.0 8.0 0.00 0.00 0.00 36 1028.0
20200703194856 72 112 4.0 11.0 0.00 0.00 0.00 35 1028.0
20200703194358 72 135 4.0 8.0 0.00 0.00 0.00 35 1027.7
20200703193856 72 180 5.0 8.0 0.00 0.00 0.00 35 1028.0
20200703193357 72 135 5.0 8.0 0.00 0.00 0.00 34 1027.7
20200703192858 72 45 3.0 11.0 0.00 0.00 0.00 33 1027.7
20200703192356 73 67 6.0 13.0 0.00 0.00 0.00 33 1027.7
20200703191856 74 112 6.0 13.0 0.00 0.00 0.00 34 1027.3
20200703191356 75 67 9.0 14.0 0.00 0.00 0.00 33 1027.3
20200703190856 76 90 5.0 11.0 0.00 0.00 0.00 33 1027.3
20200703190356 75 135 1.0 11.0 0.00 0.00 0.00 32 1027.6
20200703185856 75 315 2.0 14.0 0.00 0.00 0.00 32 1027.6
20200703185356 75 22 6.0 10.0 0.00 0.00 0.00 32 1027.6
20200703184858 75 135 8.0 13.0 0.00 0.00 0.00 33 1027.6
20200703184356 74 67 2.0 10.0 0.00 0.00 0.00 34 1027.6
20200703183857 73 112 3.0 10.0 0.00 0.00 0.00 33 1027.6
20200703183400 73 292 0.0 13.0 0.00 0.00 0.00 33 1028.0
20200703182856 73 112 11.0 17.0 0.00 0.00 0.00 33 1028.0
20200703182356 72 67 3.0 10.0 0.00 0.00 0.00 33 1028.0
20200703181856 72 67 8.0 9.0 0.00 0.00 0.00 34 1028.3
20200703181358 72 67 10.0 10.0 0.00 0.00 0.00 34 1028.3
20200703180857 72 157 3.0 8.0 0.00 0.00 0.00 34 1028.0
20200703180356 72 90 5.0 8.0 0.00 0.00 0.00 33 1028.0
20200703175856 72 90 2.0 8.0 0.00 0.00 0.00 33 1028.3
20200703175356 72 67 5.0 6.0 0.00 0.00 0.00 32 1028.3
20200703174856 72 112 4.0 7.0 0.00 0.00 0.00 33 1028.3
20200703174356 72 90 5.0 8.0 0.00 0.00 0.00 33 1028.3
20200703173857 71 112 6.0 8.0 0.00 0.00 0.00 34 1028.0
20200703173357 70 135 7.0 9.0 0.00 0.00 0.00 35 1028.0
20200703172856 69 112 5.0 7.0 0.00 0.00 0.00 37 1028.4
20200703172356 69 22 5.0 9.0 0.00 0.00 0.00 38 1028.4
20200703171856 68 112 6.0 8.0 0.00 0.00 0.00 39 1028.4
20200703171357 67 90 4.0 8.0 0.00 0.00 0.00 42 1028.4
20200703170856 66 0 5.0 8.0 0.00 0.00 0.00 43 1028.4
20200703170357 66 22 0.0 5.0 0.00 0.00 0.00 44 1028.1
20200703165856 65 337 3.0 6.0 0.00 0.00 0.00 46 1028.1
20200703165356 64 22 5.0 8.0 0.00 0.00 0.00 48 1028.1
20200703164856 64 22 6.0 10.0 0.00 0.00 0.00 48 1028.5
20200703164356 64 0 8.0 11.0 0.00 0.00 0.00 47 1028.5
20200703163856 65 337 7.0 10.0 0.00 0.00 0.00 46 1028.5
20200703163356 66 22 10.0 10.0 0.00 0.00 0.00 46 1028.2
20200703162856 67 22 6.0 11.0 0.00 0.00 0.00 46 1028.2
20200703162356 67 45 9.0 11.0 0.00 0.00 0.00 45 1027.9
20200703161857 67 45 10.0 14.0 0.00 0.00 0.00 45 1027.9
20200703161356 67 22 6.0 12.0 0.00 0.00 0.00 46 1027.9
20200703160856 67 45 10.0 10.0 0.00 0.00 0.00 45 1028.0
20200703160356 67 67 5.0 11.0 0.00 0.00 0.00 44 1028.0
20200703155856 67 67 6.0 14.0 0.00 0.00 0.00 43 1028.0
20200703155357 67 67 5.0 14.0 0.00 0.00 0.00 42 1028.0
20200703154856 68 90 12.0 18.0 0.00 0.00 0.00 40 1028.0
20200703154356 69 22 15.0 21.0 0.00 0.00 0.00 38 1028.0
20200703153857 70 90 8.0 15.0 0.00 0.00 0.00 37 1028.0
20200703153356 70 90 10.0 16.0 0.00 0.00 0.00 37 1028.1
20200703152856 70 90 3.0 11.0 0.00 0.00 0.00 35 1028.1
20200703152359 70 90 5.0 10.0 0.00 0.00 0.00 34 1028.1
20200703151856 69 67 5.0 10.0 0.00 0.00 0.00 35 1027.8
20200703151356 69 90 3.0 6.0 0.00 0.00 0.00 36 1028.1
20200703150856 68 90 3.0 8.0 0.00 0.00 0.00 36 1028.1
20200703150356 68 90 5.0 6.0 0.00 0.00 0.00 38 1028.1
20200703145856 67 112 4.0 5.0 0.00 0.00 0.00 38 1028.5
20200703145356 67 90 3.0 4.0 0.00 0.00 0.00 38 1028.2
20200703144856 66 45 3.0 6.0 0.00 0.00 0.00 38 1028.2
20200703144357 66 112 4.0 6.0 0.00 0.00 0.00 38 1028.2
20200703143856 65 112 3.0 6.0 0.00 0.00 0.00 39 1028.2
20200703143356 65 112 5.0 5.0 0.00 0.00 0.00 40 1028.6
20200703142856 64 67 3.0 5.0 0.00 0.00 0.00 40 1028.3
20200703142356 64 67 4.0 5.0 0.00 0.00 0.00 40 1028.3
20200703141857 63 180 4.0 6.0 0.00 0.00 0.00 40 1028.3
20200703141356 63 225 1.0 3.0 0.00 0.00 0.00 40 1028.3
20200703140856 62 45 1.0 5.0 0.00 0.00 0.00 41 1028.3
20200703140356 62 157 2.0 5.0 0.00 0.00 0.00 41 1028.7
20200703135856 62 135 3.0 4.0 0.00 0.00 0.00 42 1028.3
20200703135356 61 202 0.0 6.0 0.00 0.00 0.00 42 1028.0
20200703134858 61 202 5.0 6.0 0.00 0.00 0.00 42 1028.1
20200703134356 61 202 5.0 7.0 0.00 0.00 0.00 42 1028.1
20200703133857 60 247 4.0 9.0 0.00 0.00 0.00 42 1028.1
20200703133356 60 225 6.0 8.0 0.00 0.00 0.00 42 1028.1
20200703132856 60 202 6.0 8.0 0.00 0.00 0.00 42 1027.8
20200703132356 59 202 7.0 8.0 0.00 0.00 0.00 42 1027.8
20200703131856 59 225 7.0 10.0 0.00 0.00 0.00 42 1027.9
20200703131356 59 247 8.0 11.0 0.00 0.00 0.00 42 1028.2
20200703130856 58 225 8.0 11.0 0.00 0.00 0.00 43 1027.9
20200703130357 58 247 8.0 10.0 0.00 0.00 0.00 43 1027.6
20200703125856 57 247 7.0 10.0 0.00 0.00 0.00 43 1027.6
20200703125356 57 247 11.0 12.0 0.00 0.00 0.00 44 1027.6
20200703124856 57 225 6.0 11.0 0.00 0.00 0.00 44 1027.7
20200703124356 57 247 10.0 13.0 0.00 0.00 0.00 44 1027.7
20200703123857 56 225 6.0 11.0 0.00 0.00 0.00 44 1027.7
20200703123357 56 202 8.0 13.0 0.00 0.00 0.00 44 1027.7
20200703122856 56 202 8.0 11.0 0.00 0.00 0.00 44 1027.8
20200703122400 56 247 6.0 10.0 0.00 0.00 0.00 44 1027.8
20200703121856 56 247 4.0 10.0 0.00 0.00 0.00 44 1027.8
20200703121358 56 225 7.0 10.0 0.00 0.00 0.00 44 1027.8
20200703120856 56 247 5.0 10.0 0.00 0.00 0.00 43 1027.8
20200703120356 56 247 8.0 11.0 0.00 0.00 0.00 43 1027.9
20200703115856 56 225 8.0 11.0 0.00 0.00 0.00 43 1027.6
20200703115356 57 225 6.0 11.0 0.00 0.00 0.00 43 1027.6
20200703114856 57 225 8.0 10.0 0.00 0.00 0.00 42 1027.6
20200703114356 57 247 6.0 10.0 0.00 0.00 0.00 42 1027.6
20200703113856 57 225 8.0 11.0 0.00 0.00 0.00 42 1027.6
20200703113357 57 270 5.0 11.0 0.00 0.00 0.00 42 1027.7
20200703112856 57 247 9.0 11.0 0.00 0.00 0.00 42 1027.7
20200703112356 57 247 7.0 10.0 0.00 0.00 0.00 42 1027.3
20200703111856 57 270 6.0 12.0 0.00 0.00 0.00 42 1027.4
20200703111356 57 270 10.0 11.0 0.00 0.00 0.00 42 1027.4
20200703110856 57 247 7.0 11.0 0.00 0.00 0.00 43 1027.4
20200703110357 57 225 5.0 10.0 0.00 0.00 0.00 43 1027.5
20200703105856 57 247 8.0 11.0 0.00 0.00 0.00 42 1027.5
20200703105358 58 247 8.0 10.0 0.00 0.00 0.00 42 1027.5
20200703104856 58 202 8.0 10.0 0.00 0.00 0.00 42 1027.5
20200703104358 58 247 5.0 8.0 0.00 0.00 0.00 42 1027.2
20200703103856 58 247 6.0 9.0 0.00 0.00 0.00 42 1027.2
20200703103356 58 292 5.0 8.0 0.00 0.00 0.00 42 1027.2
20200703102856 58 270 10.0 10.0 0.00 0.00 0.00 43 1027.2
20200703102356 58 247 10.0 10.0 0.00 0.00 0.00 43 1027.2
20200703101856 58 247 7.0 9.0 0.00 0.00 0.00 43 1027.2
20200703101356 58 202 8.0 10.0 0.00 0.00 0.00 44 1027.3
20200703100856 58 202 5.0 11.0 0.00 0.00 0.00 44 1027.3
20200703100356 58 247 8.0 9.0 0.00 0.00 0.00 44 1027.3
20200703095856 58 225 8.0 11.0 0.00 0.00 0.00 44 1027.3
20200703095356 58 247 6.0 9.0 0.00 0.00 0.00 45 1027.3
20200703094856 58 247 5.0 12.0 0.00 0.00 0.00 45 1027.3
20200703094356 58 247 6.0 9.0 0.00 0.00 0.00 45 1027.3
20200703093857 57 247 5.0 10.0 0.00 0.00 0.00 45 1027.4
20200703093356 57 247 7.0 10.0 0.00 0.00 0.00 45 1027.0
20200703092856 57 247 6.0 11.0 0.00 0.00 0.00 46 1027.1
20200703092356 57 247 8.0 10.0 0.00 0.00 0.00 46 1027.4
20200703091857 57 270 6.0 9.0 0.00 0.00 0.00 46 1027.4
20200703091357 57 202 6.0 8.0 0.00 0.00 0.00 46 1027.1
20200703090856 57 270 5.0 8.0 0.00 0.00 0.00 46 1027.4
20200703090356 57 247 2.0 6.0 0.00 0.00 0.00 46 1027.1
20200703085856 57 292 5.0 8.0 0.00 0.00 0.00 46 1027.1
20200703085359 57 270 4.0 8.0 0.00 0.00 0.00 46 1027.1
20200703084856 57 247 6.0 8.0 0.00 0.00 0.00 46 1027.5
20200703084357 57 247 6.0 8.0 0.00 0.00 0.00 46 1027.5
20200703083856 57 247 3.0 7.0 0.00 0.00 0.00 46 1027.1
20200703083356 57 247 5.0 9.0 0.00 0.00 0.00 47 1027.5
20200703082856 57 225 5.0 8.0 0.00 0.00 0.00 47 1027.2
20200703082357 57 225 6.0 9.0 0.00 0.00 0.00 47 1027.5
20200703081856 57 247 6.0 9.0 0.00 0.00 0.00 48 1027.5
20200703081356 57 225 5.0 8.0 0.00 0.00 0.00 48 1027.5
20200703080858 57 225 6.0 8.0 0.00 0.00 0.00 50 1027.5
20200703080401 57 225 6.0 7.0 0.00 0.00 0.00 50 1027.8
20200703075856 57 225 3.0 6.0 0.00 0.00 0.00 51 1027.5
20200703075357 57 247 5.0 6.0 0.00 0.00 0.00 51 1027.5
20200703074857 57 225 5.0 5.0 0.00 0.00 0.00 51 1027.5
20200703074356 57 292 5.0 8.0 0.00 0.00 0.00 51 1027.5
20200703073856 57 292 8.0 9.0 0.00 0.00 0.00 51 1027.2
20200703073357 57 292 6.0 10.0 0.00 0.00 0.00 50 1027.5
20200703072856 58 292 8.0 10.0 0.00 0.00 0.00 49 1027.2
20200703072356 58 292 8.0 10.0 0.00 0.00 0.00 49 1027.5
20200703071856 58 292 8.0 8.0 0.00 0.00 0.00 48 1027.5
20200703071356 59 292 6.0 8.0 0.00 0.00 0.00 47 1027.5
20200703070856 59 292 5.0 5.0 0.00 0.00 0.00 47 1027.5
20200703070356 59 247 1.0 3.0 0.00 0.00 0.00 47 1027.5
20200703065856 59 180 3.0 6.0 0.00 0.00 0.00 47 1027.5
20200703065357 59 180 5.0 5.0 0.00 0.00 0.00 48 1027.5
20200703064856 59 90 3.0 5.0 0.00 0.00 0.00 47 1027.8
20200703064356 59 67 3.0 5.0 0.00 0.00 0.00 46 1027.5
20200703063856 59 90 2.0 7.0 0.00 0.00 0.00 44 1027.5
20200703063356 59 135 3.0 13.0 0.00 0.00 0.00 42 1027.5
20200703062856 59 247 6.0 9.0 0.00 0.00 0.00 41 1026.8
20200703062400 59 247 7.0 10.0 0.00 0.00 0.00 41 1026.8
20200703061857 59 247 8.0 10.0 0.00 0.00 0.00 42 1026.8
20200703061356 59 247 8.0 10.0 0.00 0.00 0.00 42 1026.8
20200703060857 59 247 9.0 10.0 0.00 0.00 0.00 42 1026.8
20200703060356 59 247 8.0 10.0 0.00 0.00 0.00 42 1026.8
20200703055856 59 225 6.0 12.0 0.00 0.00 0.00 43 1026.8
20200703055356 59 225 10.0 11.0 0.00 0.00 0.00 43 1026.8
20200703054856 59 225 7.0 10.0 0.00 0.00 0.00 43 1027.1
20200703054359 59 202 9.0 11.0 0.00 0.00 0.00 43 1027.1
20200703053856 59 247 8.0 10.0 0.00 0.00 0.00 45 1026.8
20200703053359 59 247 6.0 7.0 0.00 0.00 0.00 45 1026.7
20200703052858 59 225 5.0 8.0 0.00 0.00 0.00 44 1026.7
20200703052356 59 225 6.0 11.0 0.00 0.00 0.00 43 1026.7
20200703051856 59 247 8.0 11.0 0.00 0.00 0.00 43 1027.0
20200703051356 59 225 8.0 11.0 0.00 0.00 0.00 43 1026.7
20200703050856 59 202 9.0 12.0 0.00 0.00 0.00 43 1027.0
20200703050356 59 225 8.0 13.0 0.00 0.00 0.00 44 1026.7
20200703045856 59 202 8.0 10.0 0.00 0.00 0.00 44 1026.7
20200703045356 60 247 9.0 11.0 0.00 0.00 0.00 43 1026.6
20200703044856 60 225 7.0 8.0 0.00 0.00 0.00 43 1026.9
20200703044356 60 225 4.0 8.0 0.00 0.00 0.00 43 1026.9
20200703043856 61 225 4.0 10.0 0.00 0.00 0.00 42 1026.9
20200703043356 61 225 6.0 11.0 0.00 0.00 0.00 42 1026.6
20200703042856 62 247 8.0 10.0 0.00 0.00 0.00 43 1026.9
20200703042357 62 225 6.0 8.0 0.00 0.00 0.00 43 1026.8
20200703041857 63 247 6.0 7.0 0.00 0.00 0.00 43 1026.5
20200703041359 63 247 3.0 8.0 0.00 0.00 0.00 44 1026.8
20200703040856 63 225 6.0 8.0 0.00 0.00 0.00 45 1026.5
20200703040356 64 247 0.0 3.0 0.00 0.00 0.00 45 1026.5
20200703035856 64 247 3.0 3.0 0.00 0.00 0.00 45 1026.1
20200703035356 64 247 4.0 4.0 0.00 0.00 0.00 45 1026.1
20200703034857 64 292 3.0 3.0 0.00 0.00 0.00 46 1026.1
20200703034356 64 292 1.0 5.0 0.00 0.00 0.00 46 1026.1
20200703033856 64 270 4.0 5.0 0.00 0.00 0.00 46 1026.0
20200703033356 64 225 2.0 3.0 0.00 0.00 0.00 46 1026.0
20200703032856 64 337 0.0 1.0 0.00 0.00 0.00 46 1025.7
20200703032403 64 292 1.0 5.0 0.00 0.00 0.00 46 1025.6
20200703031856 65 292 4.0 6.0 0.00 0.00 0.00 45 1025.3
20200703031356 65 337 4.0 5.0 0.00 0.00 0.00 45 1025.3
20200703030856 65 0 3.0 5.0 0.00 0.00 0.00 44 1025.2
20200703030356 65 337 5.0 5.0 0.00 0.00 0.00 44 1024.9
20200703025856 66 90 2.0 4.0 0.00 0.00 0.00 43 1024.9
20200703025356 66 90 3.0 5.0 0.00 0.00 0.00 42 1024.8
20200703024856 66 112 3.0 7.0 0.00 0.00 0.00 42 1024.8
20200703024356 67 67 1.0 5.0 0.00 0.00 0.00 41 1024.8
20200703023857 67 90 3.0 8.0 0.00 0.00 0.00 40 1024.8
20200703023356 68 157 3.0 8.0 0.00 0.00 0.00 39 1024.4
20200703022856 68 292 1.0 4.0 0.00 0.00 0.00 38 1024.4
20200703022358 68 112 4.0 6.0 0.00 0.00 0.00 37 1024.1
20200703021856 68 180 3.0 12.0 0.00 0.00 0.00 35 1024.1
20200703021356 69 22 3.0 16.0 0.00 0.00 0.00 31 1024.0
20200703020856 69 315 6.0 12.0 0.00 0.00 0.00 27 1024.3
20200703020358 69 292 3.0 12.0 0.00 0.00 0.00 26 1024.0
20200703015856 69 0 8.0 15.0 0.00 0.00 0.00 26 1024.0
20200703015356 69 315 7.0 16.0 0.00 0.00 0.00 26 1024.0
20200703014857 70 22 6.0 13.0 0.00 0.00 0.00 26 1024.0
20200703014356 70 315 11.0 14.0 0.00 0.00 0.00 26 1023.9
20200703013856 71 337 11.0 18.0 0.00 0.00 0.00 26 1023.9
20200703013356 71 315 12.0 16.0 0.00 0.00 0.00 25 1023.9
20200703012856 72 315 5.0 11.0 0.00 0.00 0.00 25 1023.9
20200703012356 73 292 11.0 15.0 0.00 0.00 0.00 25 1023.5
20200703011856 74 292 10.0 16.0 0.00 0.00 0.00 24 1023.5
20200703011357 75 292 10.0 10.0 0.00 0.00 0.00 23 1023.5
20200703010856 75 292 5.0 5.0 0.00 0.00 0.00 22 1023.4
20200703010356 76 292 0.0 0.0 0.00 0.00 0.00 23 1023.4
20200703005856 76 225 0.0 0.0 0.00 0.00 0.00 23 1023.4
20200703005357 76 202 0.0 1.0 0.00 0.00 0.00 23 1023.3
20200703004856 76 202 0.0 5.0 0.00 0.00 0.00 23 1023.3
20200703004356 76 247 4.0 4.0 0.00 0.00 0.00 24 1023.3
20200703003856 76 225 2.0 3.0 0.00 0.00 0.00 24 1023.2
20200703003356 75 270 1.0 4.0 0.00 0.00 0.00 24 1023.2
20200703002856 74 315 4.0 8.0 0.00 0.00 0.00 24 1023.2
20200703002356 74 180 3.0 9.0 0.00 0.00 0.00 24 1023.2
20200703001856 73 292 5.0 14.0 0.00 0.00 0.00 24 1023.1
20200703001356 73 292 8.0 13.0 0.00 0.00 0.00 23 1023.4
20200703000856 73 292 10.0 15.0 0.00 0.00 0.00 23 1023.4
20200703000356 73 202 2.0 11.0 0.00 0.00 0.00 23 1023.4
20200702235857 74 270 11.0 16.0 0.00 0.00 0.00 23 1023.0
20200702235356 75 270 13.0 13.0 0.00 0.00 0.00 23 1023.0
20200702234856 76 270 6.0 12.0 0.00 0.00 0.00 23 1023.3
20200702234356 76 247 5.0 13.0 0.00 0.00 0.00 23 1023.3
20200702233856 77 202 5.0 8.0 0.00 0.00 0.00 23 1023.3
20200702233356 77 292 0.0 6.0 0.00 0.00 0.00 23 1022.9
20200702232858 77 202 5.0 8.0 0.00 0.00 0.00 23 1022.9
20200702232358 77 225 4.0 9.0 0.00 0.00 0.00 23 1023.2
20200702231856 77 225 5.0 5.0 0.00 0.00 0.00 23 1023.2
20200702231356 76 225 3.0 10.0 0.00 0.00 0.00 23 1022.8
20200702230856 76 202 8.0 9.0 0.00 0.00 0.00 24 1022.8
20200702230356 75 315 6.0 9.0 0.00 0.00 0.00 23 1022.8
20200702225856 75 315 10.0 24.0 0.00 0.00 0.00 24 1022.7
20200702225356 75 292 5.0 12.0 0.00 0.00 0.00 24 1023.0
20200702224856 76 225 6.0 13.0 0.00 0.00 0.00 23 1023.0
20200702224357 77 247 11.0 19.0 0.00 0.00 0.00 25 1023.3
20200702223856 78 202 5.0 6.0 0.00 0.00 0.00 25 1023.0
20200702223358 78 315 1.0 5.0 0.00 0.00 0.00 25 1022.9
20200702222856 78 202 2.0 9.0 0.00 0.00 0.00 26 1022.9
20200702222356 77 202 2.0 13.0 0.00 0.00 0.00 25 1023.2
20200702221856 77 270 3.0 13.0 0.00 0.00 0.00 26 1023.2
20200702221356 76 247 5.0 12.0 0.00 0.00 0.00 26 1023.2
20200702220856 76 292 0.0 4.0 0.00 0.00 0.00 26 1023.2
20200702220356 76 225 2.0 7.0 0.00 0.00 0.00 26 1023.2
20200702215856 76 157 6.0 8.0 0.00 0.00 0.00 27 1023.1
20200702215356 76 202 1.0 5.0 0.00 0.00 0.00 26 1023.1
20200702214856 76 315 4.0 9.0 0.00 0.00 0.00 26 1023.4
20200702214356 75 67 3.0 6.0 0.00 0.00 0.00 28 1023.4
20200702213856 75 270 2.0 5.0 0.00 0.00 0.00 28 1023.4
20200702213356 75 22 0.0 6.0 0.00 0.00 0.00 28 1023.4
20200702212856 75 45 3.0 7.0 0.00 0.00 0.00 29 1023.4
20200702212356 74 112 3.0 8.0 0.00 0.00 0.00 30 1023.7
20200702211856 74 135 6.0 11.0 0.00 0.00 0.00 31 1023.6
20200702211357 74 90 4.0 5.0 0.00 0.00 0.00 30 1023.6
20200702210856 74 67 2.0 5.0 0.00 0.00 0.00 29 1023.6
20200702210357 74 22 0.0 2.0 0.00 0.00 0.00 28 1023.6
20200702205856 75 180 2.0 6.0 0.00 0.00 0.00 28 1023.6
20200702205356 76 112 3.0 10.0 0.00 0.00 0.00 28 1023.6
20200702204856 76 22 2.0 10.0 0.00 0.00 0.00 28 1023.6
20200702204358 77 45 5.0 13.0 0.00 0.00 0.00 29 1023.5
20200702203856 76 67 6.0 12.0 0.00 0.00 0.00 30 1023.5
20200702203357 75 112 5.0 18.0 0.00 0.00 0.00 30 1023.5
20200702202856 75 90 3.0 13.0 0.00 0.00 0.00 30 1023.8
20200702202356 74 45 5.0 8.0 0.00 0.00 0.00 31 1023.8
20200702201857 74 45 0.0 10.0 0.00 0.00 0.00 32 1023.8